Regional Weather Roundup
Issued by NWS

Home | Current Version | Previous Version | Graphics & Text | Print | Product List | Glossary On
Versions: 1 2 3 4 5 6 7 8 9 10 11 12 13 14 15 16 17 18 19 20 21 22 23 24 25 26 27 28 29 30 31 32 33 34 35 36 37 38 39 40 41 42 43 44 45 46 47 48 49 50
000
ASUS43 KMPX 190301
RWRMN
WEATHER ROUNDUP FOR MINNESOTA
NATIONAL WEATHER SERVICE TWIN CITIES/CHANHASSEN MN
1000 PM CDT FRI APR 18 2014


NOTE: "FAIR" INDICATES FEW OR NO CLOUDS BELOW 12,000 FEET WITH NO
SIGNIFICANT WEATHER AND/OR OBSTRUCTIONS TO VISIBILITY. N/A MEANS
CURRENT SKY AND/OR WEATHER CONDITIONS ARE NOT AVAILABLE.

MNZ060>063-068>070-190400-
   Twin Cities Metro

CITY           SKY/WX    TMP DP  RH WIND       PRES   REMARKS
TWIN CITIES    MOCLDY    47  28  47 E13       30.21R
ST PAUL        CLEAR     47  26  44 E8        30.23R
CRYSTAL        PTCLDY    47  27  45 E9        30.20S
BLAINE         PTCLDY    45  28  53 E7        30.22S
EDEN PRAIRIE   MOCLDY    49  27  42 E14       30.19S
LAKEVILLE      PTCLDY    39  30  70 E9        30.20F
SOUTH ST PAUL  PTCLDY    50  28  43 E6        30.21F
LAKE ELMO      FAIR      43  28  56 E8        30.24S
$$
MNZ001>005-007-008-013>017-022>024-027-028-190400-
   Northwest Minnesota

CITY           SKY/WX    TMP DP  RH WIND       PRES   REMARKS
BEMIDJI        CLOUDY    40  19  42 SE20G26   30.13F
HALLOCK        CLOUDY    45  27  49 E21G30    29.97F
ROSEAU         CLOUDY    45  21  39 SE21G26   30.10F
WARROAD        CLOUDY    39  25  56 E14       30.13F
THIEF RVR FALL CLOUDY    43  21  42 E23G33    30.02F
CROOKSTON      CLOUDY    45  27  49 SE23G33   29.97F
FOSSTON        CLOUDY    39  23  52 SE15G28   30.04F
DETROIT LAKES  CLOUDY    41  28  60 SE25G39   30.03F
MOORHEAD       CLOUDY    45  30  57 SE26G37   29.95F
PARK RAPIDS    CLOUDY    41  23  48 SE21G26   30.12F
$$
MNZ006-009>011-018-025>026-190400-
   North Central Minnesota

CITY           SKY/WX    TMP DP  RH WIND       PRES   REMARKS
BAUDETTE       CLOUDY    41  18  39 SE9       30.16S
FLAG ISLAND    CLOUDY    37  19  48 SE13G22   30.15S
INTL FALLS     CLOUDY    39  18  42 SE12      30.23R
WASKISH        CLOUDY    43  19  39 SE15G23   30.17S
BIG FORK       CLOUDY    39  16  38 SE8       30.23F
LONGVILLE      CLOUDY    39  19  45 E8        30.19S
GRAND RAPIDS   CLOUDY    37  16  41 SE13G18   30.24F
CRANE LAKE     PTCLDY    36  21  55 SE3       30.31R
ORR            MOCLDY    36  16  44 SE9       30.25S
COOK           CLOUDY    36  19  51 SE8       30.29R
$$
MNZ012-019>021-037-190400-
   Northeast Minnesota

CITY           SKY/WX    TMP DP  RH WIND       PRES   REMARKS
DULUTH         CLOUDY    33  22  63 E16       30.29S WCI  23
ELY            MOCLDY    32  21  64 SE8       30.31R WCI  25
HIBBING        CLOUDY    36  19  50 SE12      30.28R
EVELETH        CLOUDY    34  21  60 SE9       30.30S WCI  26
DULUTH HARBOR  CLOUDY    34  28  80 NE13      30.34S WCI  25
TWO HARBORS    CLOUDY    30  21  69 E12       30.32S WCI  21
SILVER BAY     CLOUDY    28  27  93 NE6       30.34R WCI  22
GRAND MARAIS     N/A     30  24  78 NE3       30.41S
G MARAIS ARPRT PTCLDY    25  18  74 CALM      30.36S
$$
MNZ029>031-032-039>041-046>048-054>057-064-190400-
   West Central Minnesota

CITY           SKY/WX    TMP DP  RH WIND       PRES   REMARKS
FERGUS FALLS   CLOUDY    43  27  52 SE26G36   29.97F
WHEATON        CLOUDY    46  37  71 SE33G43   29.95F
MORRIS         CLOUDY    46  34  61 SE31G39   29.99F
ALEXANDRIA     CLOUDY    40  28  62 E21G30    30.08S
ELBOW LAKE     FAIR      42  31  63 SE23G33   30.00F
WADENA         CLOUDY    39  25  56 E20G28    30.09F
GLENWOOD       CLOUDY    39  30  70 E21       30.09S
APPLETON       CLOUDY    46  36  66 SE24G32   30.00F
BENSON         CLOUDY    45  34  65 SE18G26   30.04S
ORTONVILLE     CLOUDY    46  36  66 SE26G32   29.96S
MADISON        CLOUDY    52  39  62 SE24G32   29.98S
WILLMAR        FAIR      45  32  61 E21       30.10S
$$
MNZ033>034-036-042>043-049>051-058-059-190400-
   Central Minnesota

CITY           SKY/WX    TMP DP  RH WIND       PRES   REMARKS
ST CLOUD       MOCLDY    42  25  50 E10       30.17F
SAUK CENTRE    FAIR      38  28  67 E15G21    30.11S
PAYNESVILLE    MOCLDY    42  29  61 E15G21    30.13S
AITKIN         CLOUDY    39  21  48 E8        30.22F
PINE RIVER     CLOUDY    41  23  48 SE14      30.21S
BRAINERD       CLOUDY    45  21  38 SE13G20   30.20F
STAPLES        MOCLDY    39  21  48 SE10G17   30.14S
LONG PRAIRIE   FAIR      37  27  65 E16G24    30.13S
LITTLE FALLS   MOCLDY    39  23  52 E14G23    30.17F
LITCHFIELD     MOCLDY    43  32  65 E15       30.14F
BUFFALO        MOCLDY    44  29  56 E9        30.19F
MAPLE LAKE     MOCLDY    41  31  68 E8        30.19S
$$
MNZ037-044-045-052-053-190400-
   East Central Minnesota

CITY           SKY/WX    TMP DP  RH WIND       PRES   REMARKS
PRINCETON      PTCLDY    41  27  56 E8        30.23S
MORA           PTCLDY    36  25  64 E5        30.26S
CAMBRIDGE      PTCLDY    43  27  52 E3        30.22S
RUSH CITY      PTCLDY    40  24  54 E3        30.26R
MOOSE LAKE     CLOUDY    36  23  60 E5        30.26S
HINCKLEY       FAIR      41  23  48 E6        30.26S
CLOQUET        CLOUDY    34  23  64 E8        30.29R WCI  27
MCGREGOR       CLOUDY    36  25  64 E12       30.26F
$$
MNZ071>073-080-081-089-090-097-098-190400-
   Southwest Minnesota

CITY           SKY/WX    TMP DP  RH WIND       PRES   REMARKS
MONTEVIDEO     CLOUDY    45  37  76 SE21      30.03F
GRANITE FALLS  CLOUDY    49  35  59 E18G29    30.05R
CANBY          CLOUDY    49  38  65 SE16      29.99R
MARSHALL       CLOUDY    52  34  50 SE17      29.99F
REDWOOD FALLS  CLOUDY    50  35  56 SE18G29   30.06S
OLIVIA         CLOUDY    45  34  65 E17G23    30.07F
PIPESTONE      CLOUDY    54  34  47 S17G25    29.96F
WINDOM         CLOUDY    52  32  46 SE16G22   30.06F
WORTHINGTON    CLOUDY    52  28  40 SE20G30   30.05F
JACKSON        CLOUDY    50  32  50 SE14      30.08F
TRACY          CLOUDY    51  35  53 SE18      30.01F
SLAYTON        CLOUDY    50  34  54 SE22      30.01S
$$
MNZ065>067-074>077-082>085-091>093-190400-
   South Central Minnesota

CITY           SKY/WX    TMP DP  RH WIND       PRES   REMARKS
MANKATO        MOCLDY    46  34  61 SE17      30.15F
NEW ULM        CLOUDY    50  34  53 SE16G22   30.11S
ST JAMES       CLOUDY    50  34  53 E14       30.11F
FAIRMONT       MOCLDY    48  30  49 SE20G26   30.12F
GLENCOE        PTCLDY    47  31  54 E15G22    30.16R
FARIBAULT      PTCLDY    48  28  46 E10       30.19F
OWATONNA       PTCLDY    46  34  61 E16       30.18F
WASECA         PTCLDY    45  36  70 E13       30.17F
ALBERT LEA     MOCLDY    48  34  57 SE12      30.17F
$$
MNZ078>079-086>088-094>096-190400-
   Southeast Minnesota

CITY           SKY/WX    TMP DP  RH WIND       PRES   REMARKS
ROCHESTER      CLEAR     43  30  60 SE10      30.22R
RED WING       CLEAR     45  27  49 E5        30.24R
STANTON        CLEAR     47  27  44 E10G16    30.19F
DODGE CENTER   CLEAR     45  34  65 SE10      30.21S
WINONA         CLEAR     45  30  57 CALM      30.27R
AUSTIN         PTCLDY    45  34  65 SE9       30.20S
PRESTON        CLEAR     46  29  51 SE8       30.24R
$$
ABBREVIATIONS USED IN REMARKS
   TC - TEMPERATURES IN CELSIUS
  WCI - WIND CHILL INDEX
   HX - HEAT INDEX
  VSB - VISIBILITY
$$


USA.gov is the U.S. government's official web portal to all federal, state and local government web resources and services.